Weather Roundup
Issued by NWS Springfield, MO

Home | Current Version | Previous Version | Text Only | Print | Product List | Glossary On
Versions: 1 2 3 4 5 6 7 8 9 10 11 12 13 14 15 16 17 18 19 20 21 22 23 24 25 26 27 28 29 30 31 32 33 34 35 36 37 38 39 40 41 42 43 44 45 46 47 48 49 50
000
NZUS99 KSGF 060407
HRRSGF

HOURLY WEATHER
NATIONAL WEATHER SERVICE SPRINGFIELD MO
1100 PM CDT SUN JUL 05 2015

......SGF CWA......

CITY           SKY/WX    TMP DP  RH WIND       PRES   REMARKS
SPRINGFIELD    CLEAR     72  67  84 S12       30.02S
JOPLIN         CLOUDY    76  67  73 S13       29.96F
WEST PLAINS    MOCLDY    75  71  87 S8        30.08R
ROLLA          CLEAR     75  71  87 S12       30.00S
OSAGE BEACH    CLEAR     75  64  69 S7        29.99F
BRANSON        LGT RAIN  68  68 100 CALM      30.06S

......SURROUNDING SGF CWA......

CITY           SKY/WX    TMP DP  RH WIND       PRES   REMARKS
CHANUTE        MOCLDY    79  75  87 SE9       29.93S
PARSONS        PTCLDY    83  73  72 S9        29.94F
COFFEYVILLE    PTCLDY    82  73  74 S9        29.93S
EMPORIA        CLEAR     82  72  71 S17G26    29.89R
GROVE OK       CLOUDY    73  68  83 CALM      29.99S
ROGERS AR      MOCLDY    73  66  78 SE7       30.04R
SILOAM SPRINGS CLOUDY    72  64  78 SE7       30.03R
HARRISON AR    CLEAR     70  69  97 SE7       30.06R
NEAR YELLVILLE   N/A     77  70  78 CALM      30.03S

......KANSAS AND MISSOURI......

CITY           SKY/WX    TMP DP  RH WIND       PRES   REMARKS
KANSAS CTY INT PTCLDY    81  72  74 S14       29.89S
DOWNTOWN KC    CLEAR     82  70  66 S13       29.88F
COLUMBIA       CLEAR     76  71  85 S8        29.98R
SEDALIA        CLEAR     75  65  70 S12       29.96F
ST JOSEPH      CLEAR     83  74  74 S12       29.86S
ST LOUIS       MOCLDY    80  67  64 S12       30.02S
SPIRIT OF STL  CLEAR     77  70  79 S5        30.00S HAZE
KIRKSVILLE     CLEAR     75  68  78 SE12      29.94F
WICHITA        MOCLDY    85  70  60 S22G29    29.88R
TOPEKA         CLEAR     84  73  69 S15G22    29.86S HX  90
OLATHE         CLEAR     77  69  76 S13       29.90F

......TENNESSEE......

CITY           SKY/WX    TMP DP  RH WIND       PRES   REMARKS
MEMPHIS        PTCLDY    74  70  87 S9G22     30.07S
NASHVILLE      PTCLDY    73  72  96 CALM      30.10S

......ARKANSAS.......

CITY           SKY/WX    TMP DP  RH WIND       PRES   REMARKS
FAYETTEVILLE   CLOUDY    74  68  81 S7        30.03R
FT SMITH       PTCLDY    73  69  87 NE5       29.99S THUNDER
LITTLE ROCK    PTCLDY    73  67  81 CALM      30.05F

......OKLAHOMA.......

CITY           SKY/WX    TMP DP  RH WIND       PRES   REMARKS
TULSA          PTCLDY    83  73  72 SE15      29.95R
PONCA CITY     PTCLDY    85  71  63 S12G22    29.92R HX  90
MCALESTER      CLEAR     81  71  71 S7        29.99R
OKLAHOMA CITY  MOCLDY    80  71  74 SE14      29.95R

......IOWA............

CITY           SKY/WX    TMP DP  RH WIND       PRES   REMARKS
DES MOINES     PTCLDY    78  68  71 S13       29.88R
QUAD CITIES    CLEAR     71  65  81 SE8       29.95F

......ILLINOIS........

CITY           SKY/WX    TMP DP  RH WIND       PRES   REMARKS
QUINCY         CLEAR     73  68  84 SE7       29.97F HAZE
CHICAGO        CLEAR     72  61  68 S7        30.00F



USA.gov is the U.S. government's official web portal to all federal, state and local government web resources and services.